DMSP 5D-2 F13 DEB, 40565

Orbit data source: Space-Track

DMSP 5D-2 F13 DEB, 40565 is space debris in SSO originally from a launch on Fri, 24 Mar 1995 UTC launched from the Air Force Western Test Range (AFWTR). Debris objects in space refer to the collection of defunct objects orbiting the Earth. Examples of debris include non-operational satellites, rocket bodies, and fragments generated from explosions, collisions, or faulty payload assembly.

Loading next visibility...
Identifier
40565, 1995-015DY
Orbit
SSO
Country
Flag of USUS
Related business
Manufacturer
Unknown
Mission
Spacecraft
Bus & Motor
Unknown
Mass
Unknown
Launch date (UTC)
1995-03-24 (31 years ago)
Launch vehicle
Unknown
Launch site
Air Force Western Test Range (AFWTR)
Object type
Payload
Rocket body
Debris
Shape & HBR
Unknown shape, 0.1 m
Radar Cross Section
Small (<0.1 m²)

Expand to show TLE details & history
Last TLE update: 18 hours ago

TLE from 18 hours ago
0 DMSP 5D-2 F13 DEB
1 40565U 95015DY  25349.55068216  .00001833  00000-0  14411-2 0  9994
2 40565  98.7885 106.8689 0166797  39.3419 321.9719 13.86728974538632
Epoch: 2025-12-15T13:12Z
TLE epoch observation values (Epoch: 2025-12-15T13:12:58.938Z)
Latitude
0.00001°
Longitude
-175.82431°
Altitude
847.6 km
Speed
7.477 km/s
True Right ascension
07h 07m 28s
True Declination
0° 00' 00"
Sunlit
Object was in full shadow at epoch
Visualization orbit readout
Latitude
Unknown
Longitude
Unknown
Altitude
Unknown
Speed
Unknown
Apparent Right ascension
Unknown
Apparent Declination
Unknown
Sunlit
N/A
Visualization observer readout
Local Sidereal Time
06:17:47
Azimuth
Unknown
Elevation
Unknown
Doppler factor
Unknown
Orbital elements
Apogee altitude
1,059.342 km
Perigee altitude
815.303 km
Semi-major axis
7,315.459 km
Eccentricity
0.01668
Inclination
98.7885°
RAAN
106.8689°
Arg. of periapsis
39.3419°
True anomaly
320.77485°
Mean anomaly
321.9719°
Eccentric anomaly
321.37535°
Mean motion
3.46881 °/min
Orbital period
103.78 mins
BSTAR
0.0014411
Loading maneuver chart data...
Computing Atmospheric mass density...

Documentation

Showing up to 5 results
|